Location: Unspecified
(0.0000°N, 0.0000°E)
Time: 21:36:31
(UTC+00:00)

Hubble Space Telescope - Pass Details

Date: 24 January 2020
Orbit: 536 x 540 km, 28.5° (Epoch: 24 February)

Event Time Altitude Azimuth Distance (km) Brightness Sun altitude
Exits shadow 04:53:23 23° 230° (SW) 1,173 2.2 -18.5°
Maximum altitude 04:55:53 71° 149° (SSE) 565 0.9 -17.9°
Drops below altitude 10° 04:59:58 10° 66° (ENE) 1,775 4.0 -16.9°
Sets 05:02:14 0° 63° (ENE) 2,664 5.0 -16.4°
